Location: Unspecified
(53.6186°N, 1.3184°W)
Time: 08:24:57
(UTC+01:00)

ISS - Pass Details

Date: 20 September 2017
Orbit: 401 x 407 km, 51.6° (Epoch: 23 September)

Event Time Altitude Azimuth Distance (km) Brightness Sun altitude
Exits shadow 04:48:51 11° 164° (SSE) 1,411 -1.2 -17.7°
Drops below altitude 10° 04:48:59 10° 163° (SSE) 1,453 -1.1 -17.7°
Sets 04:51:26 0° 145° (SE) 2,323 0.1 -17.4°
